Year,Month,Day,Hour,Minute,Value (Times are PST for temperature in C)
2021,12,08,00,00,7.90
2021,12,08,00,01,7.90
2021,12,08,00,02,7.90
2021,12,08,00,03,7.90
2021,12,08,00,04,7.90
2021,12,08,00,05,7.90
2021,12,08,00,06,7.90
2021,12,08,00,07,7.90
2021,12,08,00,08,7.90
2021,12,08,00,09,8.00
2021,12,08,00,10,7.90
2021,12,08,00,11,8.00
2021,12,08,00,12,8.00
2021,12,08,00,13,8.00
2021,12,08,00,14,8.00
2021,12,08,00,15,8.10
2021,12,08,00,16,8.10
2021,12,08,00,17,8.10
2021,12,08,00,18,8.20
2021,12,08,00,19,8.20
2021,12,08,00,20,8.20
2021,12,08,00,21,8.20
2021,12,08,00,22,8.20
2021,12,08,00,23,8.20
2021,12,08,00,24,8.20
2021,12,08,00,25,8.20
2021,12,08,00,26,8.20
2021,12,08,00,27,8.20
2021,12,08,00,28,8.20
2021,12,08,00,29,8.20
2021,12,08,00,30,8.20
2021,12,08,00,31,8.20
2021,12,08,00,32,8.20
2021,12,08,00,33,8.20
2021,12,08,00,34,8.20
2021,12,08,00,35,8.20
2021,12,08,00,36,8.20
2021,12,08,00,37,8.20
2021,12,08,00,38,8.20
2021,12,08,00,39,8.20
2021,12,08,00,40,8.20
2021,12,08,00,41,8.20
2021,12,08,00,42,8.20
2021,12,08,00,43,8.20
2021,12,08,00,44,8.20
2021,12,08,00,45,8.10
2021,12,08,00,46,8.10
2021,12,08,00,47,8.10
2021,12,08,00,48,8.10
2021,12,08,00,49,8.00
2021,12,08,00,50,8.00
2021,12,08,00,51,8.00
2021,12,08,00,52,8.00
2021,12,08,00,53,8.00
2021,12,08,00,54,8.00
2021,12,08,00,55,7.90
2021,12,08,00,56,7.90
2021,12,08,00,57,7.90
2021,12,08,00,58,7.90
2021,12,08,00,59,7.90
2021,12,08,01,00,7.90
2021,12,08,01,01,7.90
2021,12,08,01,02,7.90
2021,12,08,01,03,7.90
2021,12,08,01,04,7.90
2021,12,08,01,05,7.90
2021,12,08,01,06,7.90
2021,12,08,01,07,7.90
2021,12,08,01,08,7.90
2021,12,08,01,09,7.90
2021,12,08,01,10,8.00
2021,12,08,01,11,8.00
2021,12,08,01,12,8.00
2021,12,08,01,13,8.00
2021,12,08,01,14,8.00
2021,12,08,01,15,8.00
2021,12,08,01,16,8.00
2021,12,08,01,17,8.00
2021,12,08,01,18,8.00
2021,12,08,01,19,8.00
2021,12,08,01,20,7.90
2021,12,08,01,21,7.90
2021,12,08,01,22,7.90
2021,12,08,01,23,7.90
2021,12,08,01,24,7.90
2021,12,08,01,25,7.90
2021,12,08,01,26,7.80
2021,12,08,01,27,7.80
2021,12,08,01,28,7.80
2021,12,08,01,29,7.80
2021,12,08,01,30,7.80
2021,12,08,01,31,7.80
2021,12,08,01,32,7.80
2021,12,08,01,33,7.80
2021,12,08,01,34,7.80
2021,12,08,01,35,7.80
2021,12,08,01,36,7.90
2021,12,08,01,37,7.90
2021,12,08,01,38,7.90
2021,12,08,01,39,7.90
2021,12,08,01,40,7.90
2021,12,08,01,41,7.90
2021,12,08,01,42,7.90
2021,12,08,01,43,7.90
2021,12,08,01,44,8.00
2021,12,08,01,45,8.00
2021,12,08,01,46,8.00
2021,12,08,01,47,8.00
2021,12,08,01,48,7.90
2021,12,08,01,49,7.90
2021,12,08,01,50,7.90
2021,12,08,01,51,7.90
2021,12,08,01,52,7.90
2021,12,08,01,53,7.90
2021,12,08,01,54,7.90
2021,12,08,01,55,7.80
2021,12,08,01,56,7.80
2021,12,08,01,57,7.80
2021,12,08,01,58,7.80
2021,12,08,01,59,7.80
2021,12,08,02,00,7.80
2021,12,08,02,01,7.80
2021,12,08,02,02,7.80
2021,12,08,02,03,7.70
2021,12,08,02,04,7.70
2021,12,08,02,05,7.80
2021,12,08,02,06,7.70
2021,12,08,02,07,7.70
2021,12,08,02,08,7.70
2021,12,08,02,09,7.70
2021,12,08,02,10,7.70
2021,12,08,02,11,7.70
2021,12,08,02,12,7.70
2021,12,08,02,13,7.70
2021,12,08,02,14,7.70
2021,12,08,02,15,7.60
2021,12,08,02,16,7.70
2021,12,08,02,17,7.70
2021,12,08,02,18,7.70
2021,12,08,02,19,7.70
2021,12,08,02,20,7.70
2021,12,08,02,21,7.70
2021,12,08,02,22,7.70
2021,12,08,02,23,7.70
2021,12,08,02,24,7.80
2021,12,08,02,25,7.80
2021,12,08,02,26,7.80
2021,12,08,02,27,7.80
2021,12,08,02,28,7.80
2021,12,08,02,29,7.80
2021,12,08,02,30,7.80
2021,12,08,02,31,7.80
2021,12,08,02,32,7.80
2021,12,08,02,33,7.80
2021,12,08,02,34,7.80
2021,12,08,02,35,7.70
2021,12,08,02,36,7.70
2021,12,08,02,37,7.70
2021,12,08,02,38,7.70
2021,12,08,02,39,7.70
2021,12,08,02,40,7.70
2021,12,08,02,41,7.70
2021,12,08,02,42,7.70
2021,12,08,02,43,7.60
2021,12,08,02,44,7.60
2021,12,08,02,45,7.60
2021,12,08,02,46,7.60
2021,12,08,02,47,7.60
2021,12,08,02,48,7.60
2021,12,08,02,49,7.60
2021,12,08,02,50,7.60
2021,12,08,02,51,7.60
2021,12,08,02,52,7.60
2021,12,08,02,53,7.60
2021,12,08,02,54,7.60
2021,12,08,02,55,7.60
2021,12,08,02,56,7.60
2021,12,08,02,57,7.60
2021,12,08,02,58,7.60
2021,12,08,02,59,7.60
2021,12,08,08,57,5.80
2021,12,08,08,58,5.80
2021,12,08,08,59,5.80
2021,12,08,09,00,5.80
2021,12,08,09,01,5.80
2021,12,08,09,02,5.80
2021,12,08,09,03,5.80
2021,12,08,09,04,5.80
2021,12,08,09,05,5.80
2021,12,08,09,06,5.80
2021,12,08,09,07,5.80
2021,12,08,09,08,5.80
2021,12,08,09,09,5.80
2021,12,08,09,10,5.90
2021,12,08,09,11,5.90
2021,12,08,09,12,5.90
2021,12,08,09,13,5.90
2021,12,08,09,14,5.90
2021,12,08,09,15,6.00
2021,12,08,09,16,6.00
2021,12,08,09,17,6.00
2021,12,08,09,18,6.10
2021,12,08,09,19,6.10
2021,12,08,09,20,6.10
2021,12,08,09,21,6.00
2021,12,08,09,22,6.00
2021,12,08,09,23,6.00
2021,12,08,09,24,6.10
2021,12,08,09,25,6.10
2021,12,08,09,26,6.10
2021,12,08,09,27,6.10
2021,12,08,09,28,6.10
2021,12,08,09,29,6.10
2021,12,08,09,30,6.10
2021,12,08,09,31,6.10
2021,12,08,09,32,6.10
2021,12,08,09,33,6.10
2021,12,08,09,34,6.20
2021,12,08,09,35,6.20
2021,12,08,09,36,6.20
2021,12,08,09,37,6.20
2021,12,08,09,38,6.20
2021,12,08,09,39,6.20
2021,12,08,09,40,6.20
2021,12,08,09,41,6.30
2021,12,08,09,42,6.30
2021,12,08,09,43,6.30
2021,12,08,09,44,6.30
2021,12,08,09,45,6.30
2021,12,08,09,46,6.30
2021,12,08,09,47,6.30
2021,12,08,09,48,6.30
2021,12,08,09,49,6.30
2021,12,08,09,50,6.30
2021,12,08,09,51,6.40
2021,12,08,09,52,6.40
2021,12,08,09,53,6.40
2021,12,08,09,54,6.40
2021,12,08,09,55,6.40
2021,12,08,09,56,6.40
2021,12,08,09,57,6.40
2021,12,08,09,58,6.40
2021,12,08,09,59,6.40
2021,12,08,10,00,6.50
2021,12,08,10,01,6.50
2021,12,08,10,02,6.50
2021,12,08,10,03,6.50
2021,12,08,10,04,6.50
2021,12,08,10,05,6.60
2021,12,08,10,06,6.60
2021,12,08,10,07,6.60
2021,12,08,10,08,6.60
2021,12,08,10,09,6.60
2021,12,08,10,10,6.60
2021,12,08,10,11,6.60
2021,12,08,10,12,6.60
2021,12,08,10,13,6.70
2021,12,08,10,14,6.70
2021,12,08,10,15,6.70
2021,12,08,10,16,6.70
2021,12,08,10,17,6.70
2021,12,08,10,18,6.70
2021,12,08,10,19,6.70
2021,12,08,10,20,6.70
2021,12,08,10,21,6.70
2021,12,08,10,22,6.80
2021,12,08,10,23,6.80
2021,12,08,10,24,6.80
2021,12,08,10,25,6.80
2021,12,08,10,26,6.80
2021,12,08,10,27,6.80
2021,12,08,10,28,6.80
2021,12,08,10,29,6.80
2021,12,08,10,30,6.80
2021,12,08,10,31,6.80
2021,12,08,10,32,6.90
2021,12,08,10,33,6.90
2021,12,08,10,34,6.90
2021,12,08,10,35,6.90
2021,12,08,10,36,6.90
2021,12,08,10,37,7.00
2021,12,08,10,38,7.00
2021,12,08,10,39,7.00
2021,12,08,10,40,7.10
2021,12,08,10,41,7.10
2021,12,08,10,42,7.10
2021,12,08,10,43,7.10
2021,12,08,10,44,7.10
2021,12,08,10,45,7.20
2021,12,08,10,46,7.20
2021,12,08,10,47,7.20
2021,12,08,10,48,7.20
2021,12,08,10,49,7.20
2021,12,08,10,50,7.20
2021,12,08,10,51,7.20
2021,12,08,10,52,7.20
2021,12,08,10,53,7.20
2021,12,08,10,54,7.20
2021,12,08,10,55,7.20
2021,12,08,10,56,7.20
2021,12,08,10,57,7.20
2021,12,08,10,58,7.20
2021,12,08,10,59,7.20
2021,12,08,11,00,7.20
2021,12,08,11,01,7.20
2021,12,08,11,02,7.20
2021,12,08,11,03,7.20
2021,12,08,11,04,7.20
2021,12,08,11,05,7.20
2021,12,08,11,06,7.10
2021,12,08,11,07,7.10
2021,12,08,11,08,7.10
2021,12,08,11,09,7.10
2021,12,08,11,10,7.10
2021,12,08,11,11,7.20
2021,12,08,11,12,7.20
2021,12,08,11,13,7.20
2021,12,08,11,14,7.20
2021,12,08,11,15,7.20
2021,12,08,11,16,7.20
2021,12,08,11,17,7.20
2021,12,08,11,18,7.20
2021,12,08,11,19,7.20
2021,12,08,11,20,7.30
2021,12,08,11,21,7.30
2021,12,08,11,22,7.30
2021,12,08,11,23,7.30
2021,12,08,11,24,7.40
2021,12,08,11,25,7.40
2021,12,08,11,26,7.40
2021,12,08,11,27,7.40
2021,12,08,11,28,7.50
2021,12,08,11,29,7.50
2021,12,08,11,30,7.50
2021,12,08,11,31,7.50
2021,12,08,11,32,7.50
2021,12,08,11,33,7.50
2021,12,08,11,34,7.50
2021,12,08,11,35,7.50
2021,12,08,11,36,7.50
2021,12,08,11,37,7.50
2021,12,08,11,38,7.50
2021,12,08,11,39,7.60
2021,12,08,11,40,7.60
2021,12,08,11,41,7.60
2021,12,08,11,42,7.60
2021,12,08,11,43,7.50
2021,12,08,11,44,7.60
2021,12,08,11,45,7.60
2021,12,08,11,46,7.60
2021,12,08,11,47,7.60
2021,12,08,11,48,7.70
2021,12,08,11,49,7.70
2021,12,08,11,50,7.70
2021,12,08,11,51,7.80
2021,12,08,11,52,7.70
2021,12,08,11,53,7.70
2021,12,08,11,54,7.70
2021,12,08,11,55,7.70
2021,12,08,11,56,7.70
2021,12,08,11,57,7.70
2021,12,08,11,58,7.70
2021,12,08,11,59,7.70
2021,12,08,12,00,7.70
2021,12,08,12,01,7.60
2021,12,08,12,02,7.60
2021,12,08,12,03,7.60
2021,12,08,12,04,7.60
2021,12,08,12,05,7.50
2021,12,08,12,06,7.40
2021,12,08,12,07,7.40
2021,12,08,12,08,7.40
2021,12,08,12,09,7.40
2021,12,08,12,10,7.40
2021,12,08,12,11,7.30
2021,12,08,12,12,7.30
2021,12,08,12,13,7.30
2021,12,08,12,14,7.30
2021,12,08,12,15,7.30
2021,12,08,12,16,7.40
2021,12,08,12,17,7.40
2021,12,08,12,18,7.50
2021,12,08,12,19,7.60
2021,12,08,12,20,7.60
2021,12,08,12,21,7.60
2021,12,08,12,22,7.60
2021,12,08,12,23,7.60
2021,12,08,12,24,7.70
2021,12,08,12,25,7.70
2021,12,08,12,26,7.80
2021,12,08,12,27,7.80
2021,12,08,12,28,7.80
2021,12,08,12,29,7.80
2021,12,08,12,30,7.80
2021,12,08,12,31,7.80
2021,12,08,12,32,7.90
2021,12,08,12,33,7.90
2021,12,08,12,34,7.90
2021,12,08,12,35,7.90
2021,12,08,12,36,7.90
2021,12,08,12,37,7.90
2021,12,08,12,38,7.90
2021,12,08,12,39,7.90
2021,12,08,12,40,7.90
2021,12,08,12,41,7.90
2021,12,08,12,42,7.90
2021,12,08,12,43,7.80
2021,12,08,12,44,7.90
2021,12,08,12,45,7.80
2021,12,08,12,46,7.80
2021,12,08,12,47,7.80
2021,12,08,12,48,7.70
2021,12,08,12,49,7.70
2021,12,08,12,50,7.70
2021,12,08,12,51,7.70
2021,12,08,12,52,7.70
2021,12,08,12,53,7.70
2021,12,08,12,54,7.70
2021,12,08,12,55,7.70
2021,12,08,12,56,7.80
2021,12,08,12,57,7.80
2021,12,08,12,58,7.80
2021,12,08,12,59,7.80
2021,12,08,13,00,7.80
2021,12,08,13,01,7.80
2021,12,08,13,02,7.80
2021,12,08,13,03,7.80
2021,12,08,13,04,7.80
2021,12,08,13,05,7.90
2021,12,08,13,06,7.90
2021,12,08,13,07,7.90
2021,12,08,13,08,8.00
2021,12,08,13,09,8.00
2021,12,08,13,10,8.00
2021,12,08,13,11,8.00
2021,12,08,13,12,8.00
2021,12,08,13,13,7.90
2021,12,08,13,14,7.80
2021,12,08,13,15,7.80
2021,12,08,13,16,7.80
2021,12,08,13,17,7.80
2021,12,08,13,18,7.80
2021,12,08,13,19,7.80
2021,12,08,13,20,7.70
2021,12,08,13,21,7.80
2021,12,08,13,22,7.80
2021,12,08,13,23,7.70
2021,12,08,13,24,7.70
2021,12,08,13,25,7.70
2021,12,08,13,26,7.60
2021,12,08,13,27,7.60
2021,12,08,13,28,7.50
2021,12,08,13,29,7.40
2021,12,08,13,30,7.40
2021,12,08,13,31,7.40
2021,12,08,13,32,7.30
2021,12,08,13,33,7.30
2021,12,08,13,34,7.30
2021,12,08,13,35,7.30
2021,12,08,13,36,7.30
2021,12,08,13,37,7.30
2021,12,08,13,38,7.30
2021,12,08,13,39,7.40
2021,12,08,13,40,7.40
2021,12,08,13,41,7.40
2021,12,08,13,42,7.40
2021,12,08,13,43,7.40
2021,12,08,13,44,7.40
2021,12,08,13,45,7.40
2021,12,08,13,46,7.40
2021,12,08,13,47,7.40
2021,12,08,13,48,7.40
2021,12,08,13,49,7.40
2021,12,08,13,50,7.40
2021,12,08,13,51,7.30
2021,12,08,13,52,7.30
2021,12,08,13,53,7.20
2021,12,08,13,54,7.20
2021,12,08,13,55,7.20
2021,12,08,13,56,7.20
2021,12,08,13,57,7.20
2021,12,08,13,58,7.20
2021,12,08,13,59,7.20
2021,12,08,14,00,7.20
2021,12,08,14,01,7.20
2021,12,08,14,02,7.20
2021,12,08,14,03,7.20
2021,12,08,14,04,7.20
2021,12,08,14,05,7.20
2021,12,08,14,06,7.20
2021,12,08,14,07,7.20
2021,12,08,14,08,7.20
2021,12,08,14,09,7.20
2021,12,08,14,10,7.10
2021,12,08,14,11,7.10
2021,12,08,14,12,7.10
2021,12,08,14,13,7.00
2021,12,08,14,14,6.90
2021,12,08,14,15,6.80
2021,12,08,14,16,6.80
2021,12,08,14,17,6.80
2021,12,08,14,18,6.80
2021,12,08,14,19,6.60
2021,12,08,14,20,6.50
2021,12,08,14,21,6.40
2021,12,08,14,22,6.40
2021,12,08,14,23,6.30
2021,12,08,14,24,6.30
2021,12,08,14,25,6.30
2021,12,08,14,26,6.30
2021,12,08,14,27,6.30
2021,12,08,14,28,6.30
2021,12,08,14,29,6.30
2021,12,08,14,30,6.30
2021,12,08,14,31,6.30
2021,12,08,14,32,6.30
2021,12,08,14,33,6.20
2021,12,08,14,34,6.20
2021,12,08,14,35,6.20
2021,12,08,14,36,6.20
2021,12,08,14,37,6.20
2021,12,08,14,38,6.20
2021,12,08,14,39,6.20
2021,12,08,14,40,6.20
2021,12,08,14,41,6.20
2021,12,08,14,42,6.10
2021,12,08,14,43,6.10
2021,12,08,14,44,6.10
2021,12,08,14,45,6.00
2021,12,08,14,46,6.00
2021,12,08,14,47,6.10
2021,12,08,14,48,6.10
2021,12,08,14,49,6.00
2021,12,08,14,50,6.00
2021,12,08,14,51,6.00
2021,12,08,14,52,5.90
2021,12,08,14,53,5.90
2021,12,08,14,54,5.90
2021,12,08,14,55,5.90
2021,12,08,14,56,5.90
2021,12,08,14,57,5.90
2021,12,08,14,58,5.80
2021,12,08,14,59,5.80
2021,12,08,15,00,5.80
2021,12,08,15,01,5.80
2021,12,08,15,02,5.80
2021,12,08,15,03,5.80
2021,12,08,15,04,5.90
2021,12,08,15,05,5.90
2021,12,08,15,06,5.90
2021,12,08,15,07,5.90
2021,12,08,15,08,5.90
2021,12,08,15,09,5.90
2021,12,08,15,10,5.90
2021,12,08,15,11,5.90
2021,12,08,15,12,5.90
2021,12,08,15,13,5.90
2021,12,08,15,14,5.90
2021,12,08,15,15,5.90
2021,12,08,15,16,5.90
2021,12,08,15,17,5.90
2021,12,08,15,18,5.90
2021,12,08,15,19,5.80
2021,12,08,15,20,5.80
2021,12,08,15,21,5.80
2021,12,08,15,22,5.90
2021,12,08,15,23,5.90
2021,12,08,15,24,5.90
2021,12,08,15,25,5.90
2021,12,08,15,26,5.90
2021,12,08,15,27,5.90
2021,12,08,15,28,5.90
2021,12,08,15,29,5.90
2021,12,08,15,30,5.80
2021,12,08,15,31,5.80
2021,12,08,15,32,5.80
2021,12,08,15,33,5.80
2021,12,08,15,34,5.70
2021,12,08,15,35,5.70
2021,12,08,15,36,5.70
2021,12,08,15,37,5.60
2021,12,08,15,38,5.60
2021,12,08,15,39,5.60
2021,12,08,15,40,5.50
2021,12,08,15,41,5.50
2021,12,08,15,42,5.50
2021,12,08,15,43,5.50
2021,12,08,15,44,5.50
2021,12,08,15,45,5.50
2021,12,08,15,46,5.40
2021,12,08,15,47,5.40
2021,12,08,15,48,5.40
2021,12,08,15,49,5.40
2021,12,08,15,50,5.40
2021,12,08,15,51,5.40
2021,12,08,15,52,5.40
2021,12,08,15,53,5.40
2021,12,08,15,54,5.30
2021,12,08,15,55,5.30
2021,12,08,15,56,5.30
2021,12,08,15,57,5.30
2021,12,08,15,58,5.30
2021,12,08,15,59,5.20
2021,12,08,16,00,5.20
2021,12,08,16,01,5.20
2021,12,08,16,02,5.20
2021,12,08,16,03,5.20
2021,12,08,16,04,5.20
2021,12,08,16,05,5.20
2021,12,08,16,06,5.10
2021,12,08,16,07,5.10
2021,12,08,16,08,5.10
2021,12,08,16,09,5.10
2021,12,08,16,10,5.10
2021,12,08,16,11,5.10
2021,12,08,16,12,5.10
2021,12,08,16,13,5.10
2021,12,08,16,14,5.10
2021,12,08,16,15,5.10
2021,12,08,16,16,5.10
2021,12,08,16,17,5.10
2021,12,08,16,18,5.10
2021,12,08,16,19,5.00
2021,12,08,16,20,5.10
2021,12,08,16,21,5.10
2021,12,08,16,22,5.10
2021,12,08,16,23,5.10
2021,12,08,16,24,5.00
2021,12,08,16,25,5.00
2021,12,08,16,26,5.00
2021,12,08,16,27,5.00
2021,12,08,16,28,5.00
2021,12,08,16,29,5.00
2021,12,08,16,30,5.00
2021,12,08,16,31,5.00
2021,12,08,16,32,5.00
2021,12,08,16,33,5.00
2021,12,08,16,34,5.00
2021,12,08,16,35,5.00
2021,12,08,16,36,4.90
2021,12,08,16,37,4.90
2021,12,08,16,38,4.90
2021,12,08,16,39,4.90
2021,12,08,16,40,4.90
2021,12,08,16,41,4.80
2021,12,08,16,42,4.80
2021,12,08,16,43,4.80
2021,12,08,16,44,4.80
2021,12,08,16,45,4.70
2021,12,08,16,46,4.70
2021,12,08,16,47,4.70
2021,12,08,16,48,4.70
2021,12,08,16,49,4.70
2021,12,08,16,50,4.70
2021,12,08,16,51,4.70
2021,12,08,16,52,4.60
2021,12,08,16,53,4.60
2021,12,08,16,54,4.60
2021,12,08,16,55,4.60
2021,12,08,16,56,4.60
2021,12,08,16,57,4.60
2021,12,08,16,58,4.60
2021,12,08,16,59,4.60
2021,12,08,17,00,4.60
2021,12,08,17,01,4.60
2021,12,08,17,02,4.60
2021,12,08,17,03,4.60
2021,12,08,17,04,4.60
2021,12,08,17,05,4.60
2021,12,08,17,06,4.70
2021,12,08,17,07,4.70
2021,12,08,17,08,4.70
2021,12,08,17,09,4.70
2021,12,08,17,10,4.70
2021,12,08,17,11,4.70
2021,12,08,17,12,4.70
2021,12,08,17,13,4.70
2021,12,08,17,14,4.70
2021,12,08,17,15,4.70
2021,12,08,17,16,4.80
2021,12,08,17,17,4.80
2021,12,08,17,18,4.80
2021,12,08,17,19,4.80
2021,12,08,17,20,4.80
2021,12,08,17,21,4.80
2021,12,08,17,22,4.70
2021,12,08,17,23,4.70
2021,12,08,17,24,4.70
2021,12,08,17,25,4.70
2021,12,08,17,26,4.70
2021,12,08,17,27,4.60
2021,12,08,17,28,4.60
2021,12,08,17,29,4.60
2021,12,08,17,30,4.60
2021,12,08,17,31,4.50
2021,12,08,17,32,4.50
2021,12,08,17,33,4.50
2021,12,08,17,34,4.50
2021,12,08,17,35,4.40
2021,12,08,17,36,4.40
2021,12,08,17,37,4.40
2021,12,08,17,38,4.40
2021,12,08,17,39,4.40
2021,12,08,17,40,4.30
2021,12,08,17,41,4.30
2021,12,08,17,42,4.30
2021,12,08,17,43,4.30
2021,12,08,17,44,4.30
2021,12,08,17,45,4.30
2021,12,08,17,46,4.30
2021,12,08,17,47,4.30
2021,12,08,17,48,4.30
2021,12,08,17,49,4.30
2021,12,08,17,50,4.30
2021,12,08,17,51,4.30
2021,12,08,17,52,4.30
2021,12,08,17,53,4.30
2021,12,08,17,54,4.30
2021,12,08,17,55,4.30
2021,12,08,17,56,4.30
2021,12,08,17,57,4.30
2021,12,08,17,58,4.30
2021,12,08,17,59,4.30
2021,12,08,18,00,4.30
2021,12,08,18,01,4.30
2021,12,08,18,02,4.30
2021,12,08,18,03,4.30
2021,12,08,18,04,4.30
2021,12,08,18,05,4.30
2021,12,08,18,06,4.30
2021,12,08,18,07,4.40
2021,12,08,18,08,4.40
2021,12,08,18,09,4.40
2021,12,08,18,10,4.40
2021,12,08,18,11,4.40
2021,12,08,18,12,4.40
2021,12,08,18,13,4.40
2021,12,08,18,14,4.40
2021,12,08,18,15,4.50
2021,12,08,18,16,4.50
2021,12,08,18,17,4.50
2021,12,08,18,18,4.50
2021,12,08,18,19,4.50
2021,12,08,18,20,4.50
2021,12,08,18,21,4.50
2021,12,08,18,22,4.40
2021,12,08,18,23,4.40
2021,12,08,18,24,4.40
2021,12,08,18,25,4.40
2021,12,08,18,26,4.40
2021,12,08,18,27,4.40
2021,12,08,18,28,4.40
2021,12,08,18,29,4.40
2021,12,08,18,30,4.40
2021,12,08,18,31,4.40
2021,12,08,18,32,4.40
2021,12,08,18,33,4.40
2021,12,08,18,34,4.40
2021,12,08,18,35,4.40
2021,12,08,18,36,4.40
2021,12,08,18,37,4.40
2021,12,08,18,38,4.40
2021,12,08,18,39,4.40
2021,12,08,18,40,4.40
2021,12,08,18,41,4.40
2021,12,08,18,42,4.40
2021,12,08,18,43,4.40
2021,12,08,18,44,4.40
2021,12,08,18,45,4.40
2021,12,08,18,46,4.40
2021,12,08,18,47,4.40
2021,12,08,18,48,4.40
2021,12,08,18,49,4.40
2021,12,08,18,50,4.40
2021,12,08,18,51,4.40
2021,12,08,18,52,4.40
2021,12,08,18,53,4.40
2021,12,08,18,54,4.40
2021,12,08,18,55,4.40
2021,12,08,18,56,4.40
2021,12,08,18,57,4.40
2021,12,08,18,58,4.40
2021,12,08,18,59,4.40
2021,12,08,19,00,4.40
2021,12,08,19,01,4.40
2021,12,08,19,02,4.40
2021,12,08,19,03,4.40
2021,12,08,19,04,4.40
2021,12,08,19,05,4.40
2021,12,08,19,06,4.40
2021,12,08,19,07,4.40
2021,12,08,19,08,4.40
2021,12,08,19,09,4.50
2021,12,08,19,10,4.40
2021,12,08,19,11,4.40
2021,12,08,19,12,4.40
2021,12,08,19,13,4.50
2021,12,08,19,14,4.40
2021,12,08,19,15,4.50
2021,12,08,19,16,4.50
2021,12,08,19,17,4.50
2021,12,08,19,18,4.50
2021,12,08,19,19,4.60
2021,12,08,19,20,4.60
2021,12,08,19,21,4.60
2021,12,08,19,22,4.60
2021,12,08,19,23,4.60
2021,12,08,19,24,4.60
2021,12,08,19,25,4.60
2021,12,08,19,26,4.60
2021,12,08,19,27,4.60
2021,12,08,19,28,4.60
2021,12,08,19,29,4.60
2021,12,08,19,30,4.60
2021,12,08,19,31,4.60
2021,12,08,19,32,4.60
2021,12,08,19,33,4.60
2021,12,08,19,34,4.60
2021,12,08,19,35,4.60
2021,12,08,19,36,4.60
2021,12,08,19,37,4.60
2021,12,08,19,38,4.60
2021,12,08,19,39,4.60
2021,12,08,19,40,4.60
2021,12,08,19,41,4.60
2021,12,08,19,42,4.60
2021,12,08,19,43,4.60
2021,12,08,19,44,4.60
2021,12,08,19,45,4.60
2021,12,08,19,46,4.60
2021,12,08,19,47,4.60
2021,12,08,19,48,4.60
2021,12,08,19,49,4.60
2021,12,08,19,50,4.60
2021,12,08,19,51,4.60
2021,12,08,19,52,4.60
2021,12,08,19,53,4.60
2021,12,08,19,54,4.60
2021,12,08,19,55,4.60
2021,12,08,19,56,4.60
2021,12,08,19,57,4.60
2021,12,08,19,58,4.50
2021,12,08,19,59,4.50
2021,12,08,20,00,4.50
2021,12,08,20,01,4.40
2021,12,08,20,02,4.40
2021,12,08,20,03,4.40
2021,12,08,20,04,4.40
2021,12,08,20,05,4.40
2021,12,08,20,06,4.40
2021,12,08,20,07,4.30
2021,12,08,20,08,4.30
2021,12,08,20,09,4.30
2021,12,08,20,10,4.30
2021,12,08,20,11,4.30
2021,12,08,20,12,4.30
2021,12,08,20,13,4.30
2021,12,08,20,14,4.30
2021,12,08,20,15,4.30
2021,12,08,20,16,4.30
2021,12,08,20,17,4.30
2021,12,08,20,18,4.30
2021,12,08,20,19,4.30
2021,12,08,20,20,4.30
2021,12,08,20,21,4.30
2021,12,08,20,22,4.30
2021,12,08,20,23,4.20
2021,12,08,20,24,4.20
2021,12,08,20,25,4.20
2021,12,08,20,26,4.20
2021,12,08,20,27,4.20
2021,12,08,20,28,4.20
2021,12,08,20,29,4.20
2021,12,08,20,30,4.20
2021,12,08,20,31,4.20
2021,12,08,20,32,4.20
2021,12,08,20,33,4.20
2021,12,08,20,34,4.20
2021,12,08,20,35,4.20
2021,12,08,20,36,4.20
2021,12,08,20,37,4.20
2021,12,08,20,38,4.20
2021,12,08,20,39,4.20
2021,12,08,20,40,4.20
2021,12,08,20,41,4.20
2021,12,08,20,42,4.10
2021,12,08,20,43,4.10
2021,12,08,20,44,4.10
2021,12,08,20,45,4.10
2021,12,08,20,46,4.10
2021,12,08,20,47,4.10
2021,12,08,20,48,4.10
2021,12,08,20,49,4.00
2021,12,08,20,50,4.00
2021,12,08,20,51,4.00
2021,12,08,20,52,4.00
2021,12,08,20,53,3.90
2021,12,08,20,54,3.90
2021,12,08,20,55,3.90
2021,12,08,20,56,3.90
2021,12,08,20,57,3.90
2021,12,08,20,58,3.90
2021,12,08,20,59,3.90
2021,12,08,21,00,3.90
2021,12,08,21,01,3.90
2021,12,08,21,02,3.90
2021,12,08,21,03,3.90
2021,12,08,21,04,3.90
2021,12,08,21,05,3.90
2021,12,08,21,06,3.90
2021,12,08,21,07,3.90
2021,12,08,21,08,3.90
2021,12,08,21,09,3.90
2021,12,08,21,10,3.90
2021,12,08,21,11,3.90
2021,12,08,21,12,3.90
2021,12,08,21,13,3.90
2021,12,08,21,14,3.90
2021,12,08,21,15,3.90
2021,12,08,21,16,3.90
2021,12,08,21,17,3.90
2021,12,08,21,18,3.90
2021,12,08,21,19,3.90
2021,12,08,21,20,3.90
2021,12,08,21,21,3.90
2021,12,08,21,22,3.90
2021,12,08,21,23,3.90
2021,12,08,21,24,3.90
2021,12,08,21,25,3.90
2021,12,08,21,26,3.90
2021,12,08,21,27,4.00
2021,12,08,21,28,4.00
2021,12,08,21,29,4.00
2021,12,08,21,30,4.00
2021,12,08,21,31,4.00
2021,12,08,21,32,4.00
2021,12,08,21,33,4.10
2021,12,08,21,34,4.10
2021,12,08,21,35,4.10
2021,12,08,21,36,4.10
2021,12,08,21,37,4.10
2021,12,08,21,38,4.10
2021,12,08,21,39,4.10
2021,12,08,21,40,4.10
2021,12,08,21,41,4.10
2021,12,08,21,42,4.10
2021,12,08,21,43,4.10
2021,12,08,21,44,4.10
2021,12,08,21,45,4.10
2021,12,08,21,46,4.10
2021,12,08,21,47,4.10
2021,12,08,21,48,4.10
2021,12,08,21,49,4.10
2021,12,08,21,50,4.10
2021,12,08,21,51,4.20
2021,12,08,21,52,4.20
2021,12,08,21,53,4.20
2021,12,08,21,54,4.20
2021,12,08,21,55,4.20
2021,12,08,21,56,4.20
2021,12,08,21,57,4.20
2021,12,08,21,58,4.20
2021,12,08,21,59,4.20
2021,12,08,22,00,4.20
2021,12,08,22,01,4.20
2021,12,08,22,02,4.20
2021,12,08,22,03,4.20
2021,12,08,22,04,4.20
2021,12,08,22,05,4.20
2021,12,08,22,06,4.20
2021,12,08,22,07,4.20
2021,12,08,22,08,4.20
2021,12,08,22,09,4.20
2021,12,08,22,10,4.20
2021,12,08,22,11,4.10
2021,12,08,22,12,4.10
2021,12,08,22,13,4.10
2021,12,08,22,14,4.00
2021,12,08,22,15,4.00
2021,12,08,22,16,4.00
2021,12,08,22,17,3.90
2021,12,08,22,18,3.90
2021,12,08,22,19,3.90
2021,12,08,22,20,3.90
2021,12,08,22,21,3.90
2021,12,08,22,22,3.90
2021,12,08,22,23,3.80
2021,12,08,22,24,3.80
2021,12,08,22,25,3.80
2021,12,08,22,26,3.80
2021,12,08,22,27,3.80
2021,12,08,22,28,3.80
2021,12,08,22,29,3.80
2021,12,08,22,30,3.80
2021,12,08,22,31,3.80
2021,12,08,22,32,3.80
2021,12,08,22,33,3.80
2021,12,08,22,34,3.80
2021,12,08,22,35,3.80
2021,12,08,22,36,3.80
2021,12,08,22,37,3.80
2021,12,08,22,38,3.80
2021,12,08,22,39,3.80
2021,12,08,22,40,3.80
2021,12,08,22,41,3.80
2021,12,08,22,42,3.80
2021,12,08,22,43,3.80
2021,12,08,22,44,3.80
2021,12,08,22,45,3.80
2021,12,08,22,46,3.80
2021,12,08,22,47,3.80
2021,12,08,22,48,3.80
2021,12,08,22,49,3.80
2021,12,08,22,50,3.90
2021,12,08,22,51,3.90
2021,12,08,22,52,3.90
2021,12,08,22,53,3.90
2021,12,08,22,54,3.90
2021,12,08,22,55,3.90
2021,12,08,22,56,3.90
2021,12,08,22,57,3.90
2021,12,08,22,58,4.00
2021,12,08,22,59,4.00
2021,12,08,23,00,4.00
2021,12,08,23,01,4.00
2021,12,08,23,02,4.00
2021,12,08,23,03,4.00
2021,12,08,23,04,4.00
2021,12,08,23,05,4.00
2021,12,08,23,06,4.00
2021,12,08,23,07,4.00
2021,12,08,23,08,4.00
2021,12,08,23,09,4.00
2021,12,08,23,10,4.00
2021,12,08,23,11,4.00
2021,12,08,23,12,4.00
2021,12,08,23,13,4.00
2021,12,08,23,14,4.00
2021,12,08,23,15,4.10
2021,12,08,23,16,4.10
2021,12,08,23,17,4.10
2021,12,08,23,18,4.20
2021,12,08,23,19,4.20
2021,12,08,23,20,4.20
2021,12,08,23,21,4.20
2021,12,08,23,22,4.20
2021,12,08,23,23,4.20
2021,12,08,23,24,4.30
2021,12,08,23,25,4.20
2021,12,08,23,26,4.30
2021,12,08,23,27,4.20
2021,12,08,23,28,4.20
2021,12,08,23,29,4.20
2021,12,08,23,30,4.20
2021,12,08,23,31,4.20
2021,12,08,23,32,4.20
2021,12,08,23,33,4.20
2021,12,08,23,34,4.20
2021,12,08,23,35,4.20
2021,12,08,23,36,4.20
2021,12,08,23,37,4.20
2021,12,08,23,38,4.20
2021,12,08,23,39,4.20
2021,12,08,23,40,4.20
2021,12,08,23,41,4.20
2021,12,08,23,42,4.20
2021,12,08,23,43,4.20
2021,12,08,23,44,4.20
2021,12,08,23,45,4.20
2021,12,08,23,46,4.10
2021,12,08,23,47,4.10
2021,12,08,23,48,4.10
2021,12,08,23,49,4.10
2021,12,08,23,50,4.00
2021,12,08,23,51,4.00
2021,12,08,23,52,3.90
2021,12,08,23,53,3.90
2021,12,08,23,54,3.80
2021,12,08,23,55,3.80
2021,12,08,23,56,3.80
2021,12,08,23,57,3.70
2021,12,08,23,58,3.70
2021,12,08,23,59,3.70
